World > North America > United States > New York

Colden, New York Regional Weather

Lat: 42.64N, Lon: 78.69W
Wx Zone: NYZ085 Web Search

Helpful Tip: Abbreviated, 7 Day, 14 Day Forecasts. There is a weather forecast for every taste.

Feedback

Colden, NY Regional Weather

Expires:202008070200;;047428
ASUS41 KALY 070110
RWRALY

NEW YORK STATE HOURLY WEATHER ROUNDUP
NATIONAL WEATHER SERVICE ALBANY NY
900 PM EDT THU AUG 06 2020

NOTE: "FAIR" INDICATES FEW OR NO CLOUDS BELOW 12,000 FEET WITH NO
SIGNIFICANT WEATHER AND/OR NO OBSTRUCTIONS TO VISIBILITY.


NYZ001>004-010>016-019>021-085-070200-
WEST

  
CITY           SKY/WX    TMP DP  RH WIND       PRES   REMARKS
NIAGARA FALLS  CLEAR     66  51  58 E7        30.12S                  
BUFFALO        PTCLDY    70  51  51 NE6       30.13R                  
DUNKIRK        PTCLDY    68  54  60 CALM      30.11S                  
JAMESTOWN      CLEAR     66  54  65 N7        30.14F                  
WELLSVILLE     MOCLDY    65  52  62 NE7       30.17S                  
ROCHESTER      PTCLDY    69  46  43 E3        30.15R                  
PENN YAN       CLEAR     66  54  65 CALM      30.16R                  
$$

             KEY
       WCI = WIND CHILL INDEX
       VSB = VISIBILITY
       HX  = HEAT INDEX
$$
  

SKY/WX - Weather  TMP - Temperature  DP - Dew Point  RH - Relative Humidity
WIND - Wind Direction/Speed PRES - Barometric Pressure VSB - Visibility
WCI - Wind Chill Index E13G22 Wind - East Wind 13 mph/Gusts of 22 mph
Colden Weather Map
UTC Time: 8/7/2020, 01:32
Your Time: